Tracking 19475 objects as of 18-Jan-2019
HD Live streaming from Space Station
objects crossing your sky now

STRV 1A

Track STRV 1A now!
10-day predictions
STRV 1A is classified as:


NORAD ID: 23125
Int'l Code: 1994-034B
Perigee: 281.2 km
Apogee: 25,985.2 km
Inclination: 7.1 °
Period: 451.8 minutes
Semi major axis: 19504 km
RCS: 0.2699 m2 (medium)
Launch date: June 17, 1994
Source: United Kingdom (UK)
Launch site: FRENCH GUIANA (FRGUI)
aabbcc
Your satellite tracking list
Your tracking list is empty




NASA's NSSDC Master Catalog

Two Line Element Set (TLE):
1 23125U 94034B   19017.53933902 +.00000545 +00000-0 +91017-4 0  9991
2 23125 007.0661 201.4171 6589331 004.6613 359.2856 03.18720360245016
Source of the keplerian elements: AFSPC